Location: Adrasan
(36.3319°N, 30.4314°E)
Time: 07:57:32
(UTC+00:00)

Delta 2 Rocket - Pass Details

Date: 09 December 2023
Orbit: 402 x 703 km, 35.6° (Epoch: 29 February)

Event Time Altitude Azimuth Distance (km) Brightness Sun altitude
Rises 15:47:01 0° 257° (WSW) 2,999 9.1 -12.6°
Reaches altitude 10° 15:49:30 10° 256° (WSW) 2,042 7.7 -13.1°
Maximum altitude 15:54:16 75° 172° (S) 628 3.6 -14.0°
Enters shadow 15:56:55 23° 90° (E) 1,241 4.5 -14.5°
